#timestamp,LO_Frequency,Hit,StdDev 
1515956415.5,286046996.3,N
1515956435.3,286046996.8,N
1515956455.2,286046997.9,N
1515956475.9,286046997.8,N
1515956495.7,286046993.3,Y
1515956515.6,286046997.1,P
1515956535.4,286046999.3,N
1515956555.3,286046999.0,N
1515956575.1,286046998.3,N
1515956576.0,286046998.3,N
1515956595.8,286046997.1,Y
1515956615.7,286046996.6,P
1515956635.5,286046998.5,N
1515956655.4,286046999.0,N
1515956675.2,286046999.3,N
1515956695.0,286047001.1,N
1515956695.9,286047001.1,N
1515956715.8,286047000.8,N
1515956735.6,286046998.4,N
1515956755.4,286046996.6,N
1515956775.3,286046997.7,N
1515956795.1,286046996.9,N
1515956815.9,286046997.1,N
1515956835.7,286046999.4,N
1515956855.5,286046996.7,N
1515956875.4,286046997.3,N
1515956895.2,286046999.0,N
1515956915.0,286046998.7,N
1515956915.9,286046998.7,N
1515956935.8,286047001.1,N
1515956955.6,286046997.5,N
1515956975.5,286046996.9,N
1515956995.3,286047000.5,N
1515957015.1,286046998.7,N
1515957035.9,286046998.9,N
1515957055.7,286046996.9,N
1515957075.6,286046998.4,N
1515957095.4,286046999.0,N
1515957115.2,286046998.7,N
1515957135.1,286046998.5,N
1515957136.0,286046998.5,N
1515957155.8,286046999.0,N
1515957175.6,286046996.7,N
1515957195.5,286046998.2,N
1515957215.3,286047001.0,N
1515957235.2,286047000.9,N
1515957255.9,286047000.8,N
1515957275.7,286047002.1,N
1515957295.6,286047001.9,N
1515957315.4,286047002.0,N
1515957335.3,286047000.5,N
1515957355.1,286047002.5,N
1515957356.0,286047002.5,N
1515957375.8,286046998.2,N
1515957395.7,286047000.8,N
1515957415.5,286047002.0,N
1515957435.3,286047001.0,N
1515957455.2,286047002.3,N
1515957475.0,286047002.3,N
1515957475.9,286047002.3,N
1515957495.8,286047000.6,N
1515957515.6,286046998.2,N
1515957535.4,286046999.2,N
1515957585.3,286046998.8,E
1515957595.2,286046998.3,N
1515957615.1,286046999.8,P
1515957616.0,286046999.8,N
1515957635.8,286046999.7,N
1515957655.6,286046999.8,N
1515957675.5,286047000.2,N
1515957695.3,286047000.0,N
1515957715.2,286047001.2,N
1515957735.9,286046999.3,N
1515957755.7,286046999.0,N
1515957775.6,286046998.8,N
1515957795.4,286046997.3,Y
1515957815.3,286047001.1,P
1515957835.1,286046999.8,N
1515957836.0,286046999.8,N
1515957855.8,286047002.2,Y
1515957875.7,286047004.1,P
1515957895.5,286047005.9,N
1515957915.4,286047005.4,N
1515957935.2,286047003.7,N
1515957955.0,286047003.5,N
1515957955.9,286047003.5,N
1515957975.8,286047001.4,N
1515957995.6,286047002.1,N
1515958015.4,286047002.4,N
1515958035.3,286047002.4,N
1515958055.1,286047001.5,N
1515958075.9,286047001.4,N
1515958095.7,286047001.0,N
1515958115.5,286047000.0,N
1515958135.4,286046998.7,N
1515958155.2,286047002.0,N
1515958175.0,286047003.1,N
1515958176.0,286047003.1,N
1515958195.8,286047005.1,N
1515958215.6,286047004.2,N
1515958235.5,286047001.5,N
1515958255.3,286047003.0,N
1515958275.1,286047003.4,N
1515958295.9,286047004.5,N
1515958315.7,286047006.3,Y
1515958335.6,286047004.1,P
1515958355.4,286047001.6,N
1515958375.2,286047005.6,P
1515958395.1,286046999.7,N
1515958396.0,286046999.7,N
1515958415.8,286047004.2,N
1515958435.6,286047002.3,N
1515958455.5,286047002.3,N
1515958475.3,286047004.2,N
1515958495.2,286047002.7,N
1515958515.9,286046999.9,N
1515958535.7,286047001.7,N
1515958555.6,286047003.7,N
1515958575.4,286047001.3,N
1515958595.3,286047003.2,N
1515958615.1,286047005.1,Y
1515958616.0,286047005.1,P
1515958635.8,286047004.0,N
1515958655.7,286047004.1,P
1515958675.5,286047000.7,N
1515958695.3,286046999.2,N
1515958715.2,286046998.3,N
1515958735.0,286046998.2,N
1515958735.9,286046998.2,N
1515958755.8,286046998.2,N
1515958775.6,286047000.4,N
1515958795.4,286046998.4,N
1515958815.3,286047000.0,N
1515958835.1,286047002.3,N
1515958855.9,286047001.8,N
1515958875.7,286047000.3,N
1515958895.5,286046999.0,N
1515958915.4,286047001.2,N
1515958935.2,286047000.0,N
1515958955.0,286047001.8,N
1515958955.9,286047001.8,N
1515958975.8,286046998.7,N
1515958995.6,286046997.6,N
1515959015.5,286046997.9,N
1515959035.3,286046997.8,N
1515959055.1,286047001.0,N
1515959075.9,286047004.0,N
1515959095.7,286046998.4,N
1515959115.5,286046998.6,N
1515959135.4,286046998.9,N
1515959155.2,286046998.1,N
1515959175.1,286047000.6,N
1515959176.0,286047000.6,N
1515959195.8,286046999.4,N
1515959215.6,286046998.1,N
1515959235.5,286046999.4,N
1515959255.3,286046998.5,N
1515959275.1,286047001.4,N
1515959295.9,286047003.9,N
1515959315.7,286047003.1,N
1515959335.6,286047005.5,Y
1515959355.4,286047004.7,P
1515959375.2,286047002.0,N
1515959395.1,286047002.2,N
1515959396.0,286047002.2,N
1515959415.8,286047001.8,N
1515959435.7,286047002.7,N
1515959455.5,286046999.0,N
1515959475.3,286047002.7,N
1515959495.2,286047001.0,N
1515959515.0,286046998.4,N
1515959515.9,286046998.4,N
1515959535.8,286046999.3,N
1515959555.6,286047000.8,N
1515959575.4,286046998.9,N
1515959595.3,286047000.5,N
1515959615.1,286047001.7,N
1515959635.8,286047003.7,N
1515959655.7,286047003.8,N
1515959675.5,286047002.2,N
1515959695.3,286047001.2,N
1515959715.2,286047000.5,N
1515959735.0,286047002.1,N
1515959735.9,286047002.1,N
1515959755.8,286046999.3,N
1515959775.6,286046999.0,N
1515959795.4,286047001.0,N
1515959815.3,286047002.4,N
1515959835.1,286047000.8,N
1515959855.9,286047000.4,N
1515959875.7,286047004.4,N
1515959895.5,286047002.1,N
1515959915.4,286047002.2,N
1515959935.2,286047000.4,N
1515959955.0,286047000.2,N
1515959955.9,286047000.2,N
1515959975.8,286046999.7,N
1515959995.6,286047003.1,N
